Weather History for Perry, IA

Change the Weather History Date:

Friday, June 21, 2013

  Actual Average Record
Temperature  
Mean Temperature 82 °F -  
Max Temperature 91 °F 82 °F 100 °F (1988)
Min Temperature 74 °F 59 °F 43 °F (1992)
Cooling Degree Days 18    
Growing Degree Days 32 (Base 50)    
Moisture  
Dew Point 68 °F    
Average Humidity 65    
Maximum Humidity 77    
Minimum Humidity 43    
Precipitation  
Precipitation 0.00 in - - ()
Sea Level Pressure  
Sea Level Pressure 29.90 in    
Wind  
Wind Speed 15 mph (SSE)    
Max Wind Speed 25 mph    
Max Gust Speed 32 mph    
Visibility 10 miles    
Events      
Averages and records for this station are not official NWS values.
T = Trace of Precipitation, MM = Missing Value Source: NWS Daily Summary

Daily Weather History Graph

Daily Weather History Graph

Search for Another Location

Airport:

Trip Planner

Search our weather history database for the weather conditions in past years. The results will help you decide how hot, cold, wet, or windy it might be!

Date:

Astronomy

Jun. 21, 2013 Rise Set
Actual Time 5:41 AM CDT 8:55 PM CDT
Civil Twilight 5:07 AM CDT 9:29 PM CDT
Nautical Twilight 4:23 AM CDT 10:13 PM CDT
Astronomical Twilight 3:29 AM CDT 11:07 PM CDT
Moon 7:05 PM CDT (6/21) 3:59 AM CDT (6/21)
Length of Visible Light 16h 22m
Length of Day
15h 13m
Waxing Gibbous, 95% of the Moon is Illuminated
Jun 21
Waxing Gibbous
Jun 23
Full
Jun 29
Last Quarter
Jul 8
New
Jul 15
First Quarter

Hourly Weather History & Observations

Time (CDT) Temp. Heat Index Dew Point Humidity Pressure Visibility Wind Dir Wind Speed Gust Speed Precip Events Conditions
12:15 AM 77.0 °F - 63.7 °F 63% 29.93 in 10.0 mi SSE 16.1 mph - N/A   Clear
12:35 AM 76.5 °F - 63.9 °F 65% 29.92 in 10.0 mi SSE 15.0 mph - N/A   Clear
12:55 AM 76.1 °F - 64.0 °F 66% 29.92 in 10.0 mi South 12.7 mph - N/A   Clear
1:35 AM 75.6 °F - 64.4 °F 68% 29.91 in 10.0 mi South 15.0 mph - N/A   Clear
1:55 AM 75.4 °F - 64.6 °F 69% 29.91 in 10.0 mi South 15.0 mph - N/A   Clear
2:15 AM 75.2 °F - 64.8 °F 70% 29.90 in 10.0 mi South 12.7 mph - N/A   Clear
2:35 AM 75.2 °F - 64.8 °F 70% 29.89 in 10.0 mi South 13.8 mph 17.3 mph N/A   Clear
2:55 AM 75.0 °F - 64.9 °F 71% 29.89 in 10.0 mi South 12.7 mph - N/A   Clear
3:15 AM 74.5 °F - 65.1 °F 72% 29.86 in 10.0 mi South 15.0 mph - N/A   Clear
3:55 AM 75.0 °F - 65.5 °F 72% 29.87 in 10.0 mi South 13.8 mph 20.7 mph N/A   Clear
4:15 AM 75.0 °F - 65.8 °F 73% 29.89 in 10.0 mi South 10.4 mph - N/A   Scattered Clouds
4:35 AM 75.2 °F - 66.2 °F 73% 29.90 in 10.0 mi South 9.2 mph - N/A   Mostly Cloudy
4:55 AM 75.4 °F - 66.4 °F 73% 29.90 in 10.0 mi South 10.4 mph - N/A   Overcast
5:15 AM 75.2 °F - 66.6 °F 74% 29.89 in 10.0 mi South 12.7 mph - N/A   Overcast
5:55 AM 74.7 °F - 66.7 °F 76% 29.90 in 10.0 mi South 11.5 mph - N/A   Scattered Clouds
6:15 AM 74.5 °F - 66.9 °F 77% 29.89 in 10.0 mi South 11.5 mph - N/A   Clear
6:35 AM 74.8 °F - 67.1 °F 77% 29.90 in 10.0 mi South 17.3 mph - N/A   Mostly Cloudy
6:55 AM 75.0 °F - 67.3 °F 77% 29.89 in 10.0 mi South 17.3 mph 23.0 mph N/A   Scattered Clouds
7:15 AM 75.4 °F - 67.3 °F 76% 29.89 in 10.0 mi South 15.0 mph - N/A   Clear
7:35 AM 75.7 °F - 67.5 °F 75% 29.88 in 10.0 mi South 18.4 mph 23.0 mph N/A   Clear
7:55 AM 76.5 °F - 67.8 °F 75% 29.88 in 10.0 mi South 16.1 mph 21.9 mph N/A   Clear
8:15 AM 77.2 °F - 68.0 °F 73% 29.88 in 10.0 mi South 15.0 mph 24.2 mph N/A   Clear
8:35 AM 78.3 °F - 68.0 °F 71% 29.89 in 10.0 mi SSW 18.4 mph - N/A   Clear
8:55 AM 79.7 °F - 68.0 °F 67% 29.89 in 10.0 mi SSW 18.4 mph 24.2 mph N/A   Clear
9:15 AM 80.8 °F 83.5 °F 68.0 °F 65% 29.91 in 10.0 mi SSW 16.1 mph - N/A   Clear
9:35 AM 81.7 °F 84.5 °F 68.0 °F 63% 29.92 in 10.0 mi SSW 13.8 mph - N/A   Scattered Clouds
9:55 AM 81.0 °F 83.6 °F 67.6 °F 64% 29.94 in 10.0 mi SSW 11.5 mph 17.3 mph N/A   Mostly Cloudy
10:15 AM 80.8 °F 83.5 °F 67.8 °F 65% 29.97 in 10.0 mi NE 4.6 mph - N/A   Overcast
10:35 AM 80.6 °F 83.5 °F 68.5 °F 67% 29.96 in 10.0 mi SSE 5.8 mph - N/A   Mostly Cloudy
10:55 AM 80.6 °F 83.4 °F 68.4 °F 66% 29.96 in 10.0 mi SE 9.2 mph - N/A   Mostly Cloudy
11:15 AM 80.8 °F 83.6 °F 68.4 °F 66% 29.96 in 10.0 mi ESE 10.4 mph - N/A   Overcast
11:35 AM 81.0 °F 83.8 °F 68.4 °F 65% 29.96 in 10.0 mi SE 12.7 mph - N/A   Overcast
11:55 AM 78.1 °F - 66.9 °F 68% 29.96 in 10.0 mi East 9.2 mph - N/A   Overcast
12:15 PM 80.8 °F 83.9 °F 69.3 °F 68% 29.96 in 10.0 mi East 13.8 mph - N/A   Overcast
12:35 PM 79.9 °F - 67.5 °F 66% 29.96 in 10.0 mi East 17.3 mph 21.9 mph N/A   Scattered Clouds
12:55 PM 80.2 °F 82.5 °F 66.6 °F 63% 29.96 in 10.0 mi East 18.4 mph 24.2 mph N/A   Scattered Clouds
1:15 PM 79.9 °F - 66.2 °F 63% 29.97 in 10.0 mi East 20.7 mph - N/A   Mostly Cloudy
1:35 PM 79.9 °F - 66.4 °F 63% 29.98 in 10.0 mi East 16.1 mph - N/A   Overcast
1:55 PM 81.0 °F 83.4 °F 67.1 °F 63% 29.97 in 10.0 mi East 15.0 mph - N/A   Overcast
2:15 PM 81.5 °F 84.4 °F 68.2 °F 64% 29.93 in 10.0 mi ESE 18.4 mph - N/A   Mostly Cloudy
2:35 PM 81.0 °F 83.9 °F 68.5 °F 66% 29.90 in 10.0 mi ESE 18.4 mph - N/A   Scattered Clouds
2:55 PM 81.5 °F 84.4 °F 68.4 °F 64% 29.86 in 10.0 mi ESE 20.7 mph 26.5 mph N/A   Clear
3:15 PM 81.5 °F 84.4 °F 68.4 °F 64% 29.88 in 10.0 mi SSE 20.7 mph 26.5 mph N/A   Clear
3:35 PM 81.7 °F 84.7 °F 68.5 °F 64% 29.87 in 10.0 mi SSE 17.3 mph - N/A   Clear
3:55 PM 83.3 °F 86.9 °F 68.9 °F 62% 29.87 in 10.0 mi SSE 19.6 mph - N/A   Clear
4:15 PM 85.8 °F 89.7 °F 69.1 °F 57% 29.86 in 10.0 mi South 20.7 mph 28.8 mph N/A   Clear
4:35 PM 88.3 °F 93.2 °F 70.0 °F 54% 29.85 in 10.0 mi South 21.9 mph 32.2 mph N/A   Clear
4:55 PM 90.5 °F 94.2 °F 67.5 °F 47% 29.85 in 10.0 mi South 25.3 mph 32.2 mph N/A   Clear
5:35 PM 91.0 °F 94.3 °F 66.7 °F 45% 29.84 in 10.0 mi South 20.7 mph - N/A   Clear
5:55 PM 91.2 °F 93.7 °F 66.0 °F 43% 29.85 in 10.0 mi South 21.9 mph 29.9 mph N/A   Clear
6:15 PM 90.5 °F 93.3 °F 66.7 °F 45% 29.86 in 10.0 mi South 23.0 mph 28.8 mph N/A   Clear
6:35 PM 89.6 °F 93.0 °F 67.3 °F 48% 29.87 in 10.0 mi South 16.1 mph 25.3 mph N/A   Clear
6:55 PM 89.2 °F 93.2 °F 68.5 °F 50% 29.87 in 10.0 mi South 16.1 mph 24.2 mph N/A   Clear
7:15 PM 88.2 °F 92.5 °F 69.3 °F 53% 29.88 in 10.0 mi South 13.8 mph 17.3 mph N/A   Clear
7:35 PM 88.0 °F 92.5 °F 69.3 °F 54% 29.88 in 10.0 mi South 13.8 mph 18.4 mph N/A   Clear
7:55 PM 87.3 °F 91.6 °F 69.4 °F 55% 29.87 in 10.0 mi SSE 12.7 mph 17.3 mph N/A   Clear
8:15 PM 86.4 °F 90.7 °F 69.4 °F 57% 29.87 in 10.0 mi SSE 11.5 mph - N/A   Clear
8:35 PM 85.5 °F 89.8 °F 69.8 °F 59% 29.87 in 10.0 mi SSE 11.5 mph - N/A   Clear
8:55 PM 84.4 °F 89.0 °F 70.3 °F 63% 29.88 in 10.0 mi SSE 10.4 mph - N/A   Clear
9:15 PM 83.7 °F 88.3 °F 70.7 °F 65% 29.88 in 10.0 mi SSE 10.4 mph - N/A   Clear
9:35 PM 82.6 °F 87.1 °F 70.9 °F 68% 29.89 in 10.0 mi South 9.2 mph - N/A   Clear
9:55 PM 82.4 °F 86.7 °F 70.7 °F 68% 29.89 in 10.0 mi South 11.5 mph - N/A   Clear
10:15 PM 82.4 °F 86.7 °F 70.7 °F 68% 29.90 in 10.0 mi South 10.4 mph - N/A   Clear
10:35 PM 81.9 °F 85.8 °F 70.2 °F 68% 29.89 in 10.0 mi South 10.4 mph - N/A   Clear
10:55 PM 81.5 °F 84.9 °F 69.8 °F 67% 29.89 in 10.0 mi South 11.5 mph - N/A   Clear
11:15 PM 80.8 °F 84.1 °F 69.8 °F 69% 29.88 in 10.0 mi South 13.8 mph - N/A   Clear
11:35 PM 80.8 °F 83.8 °F 68.9 °F 67% 29.86 in 10.0 mi South 16.1 mph - N/A   Clear
11:55 PM 80.6 °F 83.4 °F 68.2 °F 66% 29.86 in 10.0 mi South 15.0 mph 23.0 mph N/A   Clear